FlightSource - Aviation Photo Database

World Wide Airport Lookup


Search by ICAO
Or
Search by City

FlightSource.ca - Aviation Photo Database - Langenlebarn Military Airport Information
Airport Identification
Name: Langenlebarn Military Airport
ICAO: LOXT
IATA:
Airport Location
City: Tulln
Region: 3
Country: Austria
Continent: Europe
Latitude: 48.3167
Longitude: 16.1167
Airport Information
Type: Small Airport
Elevation: 574 Feet ASL
Flight Status: LOXT
More Info: LOXT
Airport Weather    
Metar: LOXT 251050Z 33008KT 15KM BKN030SC M07/M13 Q1026 RMK BKN
TAF:


Advertisement